User: anonymous   Login
Location: Unspecified
(0.0000°N, 0.0000°E)
Time: 21:30:49
(UTC+00:00)
Language:

STARLINK-34103 - Orbit

View from above orbital plane
View from above orbital plane
View from above satellite
View from above satellite

Ground track
Ground track

The orbit is defined by the following mean orbital elements,

1 63962U          26145.36798198 +.00000000 +00000-0 +91734-3 0 00005
2 63962  42.9998 103.1471 0001282 271.5345  88.5360 15.27595433    00
Epoch (UTC): 25 May 2026 08:49:53
Eccentricity: 0.0001282
inclination: 42.9998°
perigee height: 482 km
apogee height: 484 km
right ascension of ascending node: 103.1471°
argument of perigee: 271.5345°
revolutions per day: 15.27595433
mean anomaly at epoch: 88.5360°

The dashed part of the orbit path shows where the satellite is in the earth's shadow,  

DLR